Location: Dana
(41.8364°N, 106.7042°W)
Time: 11:38:33
(UTC+00:00)

Injun/Solrad 3 - Pass Details

Date: 14 May 2026
Orbit: 867 x 989 km, 66.8° (Epoch: 11 June)

Event Time Altitude Azimuth Distance (km) Brightness Sun altitude
Rises 05:18:23 0° 337° (NNW) 3,663 12.4 -24.9°
Reaches altitude 10° 05:22:52 10° 6° (N) 2,735 11.1 -25.2°
Maximum altitude 05:25:26 12° 30° (NNE) 2,565 10.6 -25.4°
Drops below altitude 10° 05:28:01 10° 54° (NE) 2,748 10.5 -25.6°
Enters shadow 05:32:12 - 81° (E) 3,616 10.8 -26.0°
Sets 05:32:31 0° 83° (E) 3,699 - -26.0°
